Vertical_Velocity
-1 -0 -1 -0 -1 1 -0 0 -0 -1 1 1 -1 -1 -1 1 2 2 -1 -0 -1 -1 -1 1 -1 -1 -2 -3 -4 -2 -0 -1 -3 -3 -1 0 -3 -0 -0 0 -1 2 -1 0 0 0 -1
2 -2 0 -1 -0 -1 -1 0 -0 -0 -1 0 0 -2 -0 -1 0 0 1 -0 -1 -2 -2 -1 0 -1 -2 -2 -1 -1 1 -2 -3 -1 -2 -0 1 1 -0 -1 0 1 1 -4 -5 -8 -1
1 -0 -2 -1 -0 -1 -1 -2 -1 0 -0 -1 1 2 -1 0 -2 1 -1 -1 1 -1 -3 -3 -2 0 -1 -2 -1 -1 0 -0 -0 -1 -3 0 -1 1 1 -1 1 -1 0 -3 -1 -2 -3
1 -0 -2 -0 -0 -2 -1 -1 0 -1 -0 -1 -2 -1 1 -1 1 -2 1 1 -1 1 1 1 -1 -1 -3 -3 -1 1 1 1 -1 1 -2 -1 -0 1 1 2 -4 -1 0 -2 -6 -0 -6
-1 1 1 -0 -1 1 -2 1 -2 1 -0 -1 -0 0 -2 2 -1 -0 -0 1 2 2 -1 0 -1 -1 -4 -2 -3 1 0 -1 3 2 -0 0 1 -0 -1 -1 -4 -2 -1 0 -8 -0 -0
-2 0 0 -0 -1 0 0 -1 0 -2 -1 1 -1 0 0 -1 -1 -2 1 0 -2 1 1 -0 -1 -0 -0 -3 -1 -1 0 0 -1 -1 2 1 1 -1 -1 -3 -3 -2 -0 -1 -1 -6 1
-0 1 2 -1 -0 -1 1 -2 1 0 0 -2 1 -1 1 -0 -1 0 -2 1 0 -0 0 -0 -0 -1 1 2 0 -0 -1 -1 1 0 -0 0 -3 -2 -4 -2 -2 1 1 1 -7 -8 4
0 0 1 0 -1 0 -0 -0 -0 -0 2 -0 -1 -0 -2 1 -1 -2 -2 -3 2 3 -6 -1 0 -1 -0 -1 -3 -0 -1 -0 1 -1 -0 -6 -3 -5 0 1 2 1 1 -5 -6 -1 2
-3 3 1 -3 1 -1 0 -1 1 0 -1 -1 0 -2 -0 -2 0 0 -2 -1 -3 -1 2 -2 0 -0 1 0 -1 -2 -1 1 1 1 -0 -1 -10 0 2 -2 0 -1 -0 -1 0 -2 -2
-4 2 3 1 -2 -0 -0 -0 -1 1 -2 1 -1 -0 0 0 -0 0 -0 1 2 -2 -6 -6 -1 -1 -1 0 -2 -1 0 1 -1 -0 1 -2 -4 1 0 -0 0 1 -1 1 1 -2 -4
0 -0 -2 0 -1 -0 -1 -1 -0 0 0 -1 -0 -1 -2 -1 1 -0 0 -2 1 -1 -9 -10 -1 -0 1 1 1 -1 1 1 -1 -2 -6 -19 -1 -1 0 -4 -1 -12 2 2 1 0 -3
1 -4 -2 1 -4 0 -3 1 -4 -1 -1 -1 -1 -1 -0 -1 -2 -1 -0 1 -0 -21 -15 -1 -0 -1 -1 0 -1 1 0 1 3 1 1 -4 -0 2 -3 -1 -0 -1 -1 -2 -1 -1 -4
1 -2 -2 -2 -3 -1 -1 -4 1 -6 -1 -1 -1 -1 -1 -0 -0 1 0 1 -14 -9 -9 -3 -2 0 -0 -1 -2 1 0 -2 -1 -9 -4 -5 -2 -1 1 -1 -3 -5 -5 -6 -11 -9 -6
-1 -1 -2 1 0 -1 0 -1 -3 -3 -2 -2 -3 -1 -2 1 2 2 -0 -9 -2 -7 -2 -1 -0 -0 -1 -0 -2 -1 -0 -1 -0 -2 -1 -1 -21 0 0 -2 1 0 -2 -6 -1 -1 -4
-2 -2 -3 -2 0 2 -1 -2 -1 -4 -4 -3 -2 -1 -2 -2 1 -1 1 -4 -11 -2 -2 -0 0 1 -1 0 -1 -0 -0 -1 -2 -2 -2 -2 -7 -3 1 -0 -6 -4 -2 -3 -1 -1 -3
-3 -1 -1 -2 -3 -1 -1 -1 -3 -3 -2 -2 -5 -5 -1 0 2 0 -4 -5 -2 -0 -1 -1 -0 -2 0 -1 0 0 -1 -4 -1 -1 -1 -1 -5 -2 -3 -1 -1 -1 -3 -8 -4 -3 -2
-2 -1 -1 -2 0 -2 -1 -1 -3 -2 1 -4 -2 -4 0 1 3 1 -4 -5 -1 0 0 -2 -1 0 -2 -1 -1 -1 -4 -4 0 1 -0 -1 -4 -14 -2 -1 -0 -4 -1 -1 -5 -4 -2
-1 -2 -1 -1 -3 -3 -2 -1 -2 -3 -2 1 -2 -1 3 3 -1 1 -1 -4 1 -1 -0 -0 0 0 -1 -0 0 1 -2 -3 -0 -3 -1 -3 -3 -1 -7 -3 1 -0 -0 -1 -4 -4 -1
-1 -1 -4 1 -3 -1 -0 -5 -3 0 -3 -5 0 -3 3 5 -2 -1 -3 -2 1 1 -1 0 -0 -1 -0 -0 -2 0 -0 0 0 -1 -5 -5 -2 -4 -17 -10 -3 1 -0 -0 -0 -2 -3
-1 0 1 1 -3 -2 -3 -2 -3 -2 -1 -2 -1 -4 -0 3 3 -1 0 -3 -2 0 -1 0 -2 1 1 1 -0 -2 -1 -0 0 -0 1 -1 -0 -6 -8 -10 -2 -1 -0 -0 -1 1 -3
-4 1 0 -2 2 1 -2 -1 -3 -1 1 -4 0 -5 3 -3 -3 -0 1 1 -0 -1 0 1 -0 -1 -4 0 0 -1 0 1 1 0 1 -4 -1 0 -2 -1 2 -0 1 -1 1 -5 0
-3 -6 -2 -2 -1 -1 -2 -3 -1 -5 2 3 3 1 -4 0 -2 2 0 -3 0 -5 3 -2 2 -1 0 -1 -8 -2 -1 -1 -7 2 -0 1 -3 1 -3 -0 1 0 -1 0 -0 -1 1
-3 -2 -1 -3 -3 0 1 -4 -4 -3 -2 -0 -1 8 -1 -4 -0 3 -4 -4 -3 3 -12 6 0 2 1 -10 -3 -9 0 1 -3 -8 -1 -2 -1 -1 -4 0 -1 -3 -5 -1 -1 -0 -3
-1 1 -1 -4 -8 -0 1 1 -6 -5 -3 -3 1 -4 1 -7 3 -0 1 6 0 -1 10 -11 12 9 -18 1 -2 4 5 3 3 -0 -3 -2 -0 -1 -2 -2 -3 -17 -0 -2 -1 -1 0
6 2 2 1 -3 -1 1 -2 1 -5 -3 -2 -0 -0 3 -2 4 -3 -1 2 -4 -5 4 10 -13 6 7 10 3 0 -3 -2 -2 -1 1 -2 -2 -1 -2 -1 -10 -4 -1 -3 -5 -8 -2
-3 2 6 2 -0 -5 -4 0 3 5 1 0 3 2 4 10 -7 11 1 1 1 -1 -5 -15 -16 -5 11 3 4 1 -3 -3 -1 0 -1 -0 -1 -5 1 1 -4 -9 -0 -0 -2 -9 -1
-0 1 -3 4 6 -2 -1 1 7 -1 5 -6 -9 3 5 6 -24 9 2 4 5 0 3 -3 -6 1 12 0 4 2 -6 -5 -0 -1 -1 1 1 -4 -0 -1 -9 -5 -2 1 -11 -24 -1
3 1 2 1 -1 7 2 0 1 -1 -7 4 -12 1 10 3 -16 -14 5 7 -9 1 6 -24 -12 -1 1 4 4 -4 2 -9 5 -5 -7 -8 -5 -1 2 3 -13 -1 3 -10 -14 2 -2
-2 -2 0 -0 0 -2 9 1 2 -2 -1 18 -10 1 7 18 -20 -12 0 4 -2 -18 15 -2 -19 -3 2 1 -0 1 1 1 -1 -7 3 -1 -15 -13 -14 -20 -5 -3 -0 -1 -2 -9 -4
Height
1574 1573 1572 1572 1570 1570 1569 1567 1565 1563 1560 1558 1555 1553 1552 1551 1549 1548 1547 1546 1545 1545 1545 1544 1543 1541 1539 1538 1538 1535 1533 1532 1530 1528 1525 1523 1520 1519 1520 1519 1517 1514 1510 1506 1502 1499 1496
1575 1575 1574 1573 1572 1571 1570 1568 1566 1564 1561 1558 1556 1554 1552 1550 1548 1546 1545 1544 1543 1543 1543 1543 1542 1540 1539 1539 1535 1534 1532 1531 1528 1527 1525 1524 1522 1521 1520 1519 1519 1513 1510 1503 1499 1494 1492
1576 1576 1575 1574 1573 1572 1571 1569 1567 1565 1562 1559 1556 1554 1551 1549 1547 1545 1543 1542 1542 1541 1541 1541 1540 1539 1538 1539 1534 1533 1531 1530 1527 1525 1524 1524 1523 1522 1520 1518 1515 1512 1511 1502 1494 1490 1488
1577 1577 1576 1575 1574 1573 1571 1569 1568 1566 1563 1560 1557 1554 1552 1549 1547 1544 1542 1541 1540 1540 1540 1539 1539 1538 1536 1535 1534 1532 1531 1529 1526 1524 1523 1523 1522 1522 1520 1517 1513 1512 1511 1511 1493 1489 1486
1577 1577 1576 1575 1574 1573 1571 1570 1568 1565 1563 1560 1557 1555 1552 1549 1547 1544 1542 1540 1539 1539 1538 1538 1538 1537 1535 1534 1532 1531 1529 1528 1525 1523 1521 1521 1521 1521 1519 1520 1522 1517 1519 1510 1497 1486 1485
1578 1577 1576 1575 1574 1572 1571 1569 1567 1565 1563 1560 1557 1555 1552 1549 1547 1545 1542 1540 1538 1538 1537 1536 1536 1539 1534 1533 1531 1529 1528 1526 1524 1522 1520 1520 1520 1521 1521 1523 1527 1516 1514 1506 1502 1487 1484
1577 1577 1576 1575 1574 1572 1571 1569 1567 1565 1563 1560 1558 1555 1552 1549 1547 1544 1542 1540 1541 1540 1536 1534 1534 1532 1531 1531 1528 1527 1527 1525 1523 1522 1521 1520 1523 1523 1514 1513 1509 1509 1509 1505 1489 1482 1484
1577 1577 1575 1574 1573 1571 1570 1569 1567 1564 1562 1560 1558 1555 1552 1549 1547 1545 1543 1542 1541 1542 1536 1532 1532 1531 1529 1528 1527 1525 1526 1526 1524 1523 1520 1523 1522 1507 1507 1506 1506 1504 1505 1498 1485 1479 1482
1576 1577 1576 1574 1574 1572 1570 1568 1566 1564 1562 1560 1558 1555 1552 1549 1547 1545 1543 1542 1541 1540 1538 1531 1530 1529 1529 1528 1526 1524 1525 1524 1522 1523 1519 1522 1509 1505 1505 1503 1501 1498 1498 1493 1489 1481 1475
1578 1576 1575 1574 1573 1571 1569 1567 1566 1564 1561 1559 1557 1555 1552 1549 1549 1545 1544 1542 1541 1540 1547 1533 1530 1528 1527 1526 1525 1524 1523 1524 1521 1521 1517 1516 1506 1504 1503 1503 1499 1500 1486 1487 1486 1489 1499
1578 1577 1575 1573 1572 1570 1568 1566 1564 1562 1560 1558 1556 1554 1551 1549 1548 1546 1545 1542 1541 1542 1567 1531 1528 1527 1526 1527 1524 1522 1522 1521 1521 1518 1521 1513 1505 1505 1504 1497 1496 1494 1485 1486 1484 1488 1492
1577 1576 1574 1572 1570 1568 1566 1564 1563 1561 1559 1557 1555 1553 1551 1549 1547 1546 1544 1542 1543 1554 1557 1529 1527 1526 1527 1524 1523 1520 1521 1521 1518 1517 1515 1511 1504 1504 1500 1494 1493 1489 1483 1483 1485 1490 1505
1575 1574 1573 1571 1568 1566 1564 1562 1560 1558 1557 1554 1553 1551 1549 1547 1546 1544 1543 1544 1554 1563 1531 1528 1525 1525 1526 1526 1523 1521 1519 1521 1523 1531 1524 1514 1503 1498 1498 1498 1492 1493 1497 1516 1509 1509 1497
1574 1572 1570 1569 1567 1564 1562 1559 1557 1555 1554 1551 1550 1549 1547 1545 1543 1543 1543 1546 1554 1534 1529 1523 1525 1525 1526 1523 1522 1521 1521 1524 1520 1523 1535 1539 1522 1500 1498 1499 1500 1501 1503 1526 1510 1519 1508
1571 1570 1567 1565 1563 1560 1558 1556 1553 1552 1550 1548 1546 1545 1544 1542 1541 1542 1544 1559 1543 1531 1522 1524 1525 1526 1524 1522 1524 1523 1521 1523 1519 1520 1526 1534 1519 1500 1498 1497 1499 1497 1505 1500 1506 1507 1527
1566 1565 1562 1560 1558 1557 1554 1552 1550 1548 1546 1543 1542 1541 1539 1538 1538 1540 1543 1542 1530 1522 1521 1523 1526 1524 1526 1522 1523 1523 1521 1516 1517 1517 1518 1522 1530 1504 1499 1498 1497 1497 1499 1507 1512 1509 1500
1563 1562 1559 1557 1555 1553 1550 1548 1546 1545 1543 1541 1540 1538 1536 1536 1537 1540 1546 1537 1525 1521 1521 1524 1524 1523 1524 1520 1522 1522 1518 1514 1513 1517 1517 1519 1525 1511 1502 1500 1499 1501 1501 1500 1504 1512 1514
1561 1559 1557 1555 1552 1550 1548 1545 1543 1541 1540 1538 1539 1538 1534 1534 1538 1535 1535 1527 1522 1520 1521 1521 1521 1521 1521 1519 1520 1523 1518 1511 1510 1513 1518 1518 1525 1529 1505 1497 1497 1496 1496 1501 1512 1504 1508
1562 1559 1556 1554 1551 1549 1545 1542 1541 1541 1539 1538 1538 1535 1532 1532 1535 1534 1526 1522 1520 1519 1520 1519 1519 1518 1515 1518 1520 1516 1511 1507 1508 1510 1514 1516 1524 1534 1507 1501 1496 1496 1495 1495 1500 1504 1504
1562 1560 1558 1555 1552 1547 1543 1540 1539 1539 1538 1540 1540 1537 1531 1529 1528 1527 1527 1522 1520 1516 1513 1513 1512 1513 1516 1515 1515 1512 1510 1507 1507 1509 1511 1511 1519 1517 1519 1504 1504 1504 1498 1496 1499 1513 1497
1562 1559 1558 1555 1552 1547 1542 1539 1537 1536 1536 1538 1537 1534 1530 1531 1527 1527 1527 1522 1519 1517 1515 1513 1511 1510 1511 1517 1513 1512 1507 1506 1507 1507 1510 1512 1518 1518 1508 1505 1504 1500 1496 1495 1500 1494 1492
1560 1558 1557 1554 1552 1547 1543 1539 1535 1535 1533 1535 1536 1534 1530 1529 1527 1525 1525 1522 1519 1517 1516 1514 1514 1508 1510 1511 1506 1503 1502 1503 1502 1507 1509 1509 1511 1511 1508 1498 1500 1498 1488 1487 1486 1483 1483
1558 1557 1554 1552 1551 1547 1544 1540 1537 1534 1532 1532 1535 1533 1532 1527 1524 1523 1520 1518 1516 1517 1511 1508 1509 1510 1508 1504 1499 1494 1493 1492 1490 1495 1503 1506 1509 1514 1507 1503 1499 1488 1474 1475 1472 1471 1470
1557 1555 1553 1550 1549 1547 1545 1542 1539 1537 1536 1535 1535 1535 1533 1524 1525 1522 1519 1520 1517 1516 1511 1509 1505 1507 1504 1501 1497 1491 1488 1488 1487 1488 1489 1501 1506 1509 1510 1501 1508 1466 1464 1465 1467 1465 1464
1553 1553 1550 1548 1547 1546 1544 1542 1540 1538 1536 1534 1533 1533 1532 1524 1522 1520 1520 1518 1514 1512 1509 1507 1503 1501 1500 1498 1497 1493 1490 1487 1485 1484 1486 1486 1495 1503 1504 1505 1481 1460 1463 1464 1464 1460 1458
1549 1549 1547 1545 1544 1543 1541 1540 1538 1537 1535 1532 1532 1530 1530 1525 1515 1517 1518 1516 1513 1510 1505 1497 1495 1495 1495 1493 1491 1483 1482 1482 1483 1485 1484 1486 1487 1491 1505 1496 1479 1455 1452 1454 1457 1466 1451
1545 1544 1543 1541 1540 1539 1538 1536 1535 1533 1532 1531 1529 1528 1526 1522 1513 1512 1514 1514 1512 1509 1505 1501 1496 1489 1485 1483 1478 1476 1473 1474 1473 1483 1491 1490 1491 1482 1484 1491 1471 1451 1450 1452 1462 1456 1446
1540 1539 1537 1536 1534 1534 1532 1531 1530 1528 1527 1526 1524 1524 1523 1515 1506 1505 1504 1509 1510 1511 1507 1499 1500 1484 1481 1478 1474 1469 1467 1459 1462 1458 1469 1474 1484 1480 1487 1492 1473 1439 1448 1451 1440 1439 1442
1535 1533 1531 1530 1528 1527 1526 1525 1524 1523 1522 1521 1518 1518 1516 1510 1497 1496 1496 1500 1496 1497 1500 1496 1490 1485 1483 1473 1466 1463 1455 1456 1444 1445 1453 1458 1447 1460 1461 1451 1432 1430 1427 1428 1431 1434 1440